Tracking 29782 objects as of 13-Oct-2024
HD Live streaming from Space Station
objects crossing your sky now

TITAN 3C TRANSTAGE DEB

Track TITAN 3C TRANSTAGE DEB now!


NORAD ID: 43449
Int'l Code: 1969-013J
Perigee: 36,250.2 km
Apogee: 37,466.6 km
Inclination: 0.4 °
Period: 1,490.8 minutes
Semi major axis: 43229 km
RCS: Unknown
Launch date: February 9, 1969
Source: United States (US)
Launch site: AIR FORCE EASTERN TEST RANGE (AFETR)

Note: This is SATELLITE DEBRIS
Your satellite tracking list
Your tracking list is empty




NASA's NSSDC Master Catalog

Two Line Element Set (TLE):
1 43449U 69013J   24285.57132158 -.00000175  00000-0  00000+0 0  9999
2 43449   0.3738 320.7649 0140688 175.8783 224.4958  0.96590345 22913
Source of the keplerian elements: AFSPC